Regional Weather Roundup
Issued by NWS

Home | Current Version | Previous Version | Graphics & Text | Print | Product List | Glossary On
Versions: 1 2 3 4 5 6 7 8 9 10 11 12 13 14 15 16 17 18 19 20 21 22 23 24 25 26 27 28 29 30 31 32 33 34 35 36 37 38 39 40 41 42 43 44 45 46 47 48 49 50
000
ASUS44 KMEG 250100
RWRTN
TENNESSEE HOURLY STATE WEATHER ROUNDUP
NATIONAL WEATHER SERVICE MEMPHIS TN
800 PM CDT MON APR 24 2017

TNZ002-004-019-021-049-052-054-088>092-250200-
WEST TENNESSEE

CITY           SKY/WX    TMP DP  RH WIND       PRES   REMARKS
MEMPHIS INTL   PTCLDY    69  54  58 SE5       29.75S
NWS MEMPHIS      N/A     65 N/A N/A MISG        N/A
JACKSON        CLEAR     63  57  81 S6        29.75F
DYERSBURG      CLEAR     66  56  70 SE3       29.75R
$$

TNZ008-025-027-028-033-062-065-066-250200-
NORTH MIDDLE TENNESSEE

CITY           SKY/WX    TMP DP  RH WIND       PRES   REMARKS
NASHVILLE      MOCLDY    65  55  70 CALM      29.77S
CLARKSVILLE    CLEAR     64  53  67 SW3       29.75F
SMYRNA         CLEAR     59  56  89 CALM      29.78S
CROSSVILLE     CLEAR     59  52  77 N5        29.79R
$$

TNZ061-075-076-078-094-096-097-250200-
SOUTH MIDDLE TENNESSEE

CITY           SKY/WX    TMP DP  RH WIND       PRES   REMARKS
TULLAHOMA      CLEAR     55  54  94 SW3       29.78F
WINCHESTER     MOCLDY    57  55  94 CALM      29.78S
COLUMBIA       MOCLDY    61  61 100 CALM      29.76F
$$

TNZ017-018-042-046-047-250200-
NORTHEAST TENNESSEE

CITY           SKY/WX    TMP DP  RH WIND       PRES   REMARKS
TRI CITIES     CLOUDY    56  50  80 NE5       29.80S
$$

TNZ012-013-036-069-073-074-250200-
CENTRAL EAST TENNESSEE

CITY           SKY/WX    TMP DP  RH WIND       PRES   REMARKS
KNOXVILLE      MOCLDY    62  54  74 NE7       29.75R
OAK RIDGE      CLOUDY    66  54  65 E5        29.77R
GATLINBURG     PTCLDY    59  54  82 CALM      29.76R
$$

TNZ083-085-099-250200-
SOUTHEAST TENNESSEE

CITY           SKY/WX    TMP DP  RH WIND       PRES   REMARKS
CHATTANOOGA    PTCLDY    63  55  75 N6        29.75S
$$

SKY/WX REPORTED AS FAIR MEANS FEW OR NO CLOUDS BELOW
12 THOUSAND FEET.




USA.gov is the U.S. government's official web portal to all federal, state and local government web resources and services.